User: anonymous   Login
Location: Newark
(49.4569°N, 2.2158°E)
Time: 03:35:43
(UTC+00:00)
Language:

QB50P2 - Orbit

View from above orbital plane
View from above orbital plane
View from above satellite
View from above satellite

Ground track
Ground track

The orbit data is extracted from the following two-line orbital elements,

1 40032U 14033Y   20058.79820280  .00000224  00000-0  30046-4 0  9996
2 40032  97.9033 340.8460 0010688 304.7220  55.2989 14.88606815309049
Epoch (UTC): 27 February 2020 19:09:24
Eccentricity: 0.0010688
inclination: 97.9033°
perigee height: 595 km
apogee height: 610 km
right ascension of ascending node: 340.8460°
argument of perigee: 304.7220°
revolutions per day: 14.88606815
mean anomaly at epoch: 55.2989°
orbit number at epoch: 30904

The dashed part of the orbit path shows where the satellite is in the earth's shadow,  

DLR